UAL1355 KORD-KIAD

Flight info

Callsign UAL1355
Flight time 1h 13m
Altitude 37000
Route MOBLE ADIME ANEWA JERRI NUSMM MGW GIBBZ5
Aircraft B38M/M-SDE1FGHILORVWXY/HB1

Departure

Time 2026-05-08 01:24
Airport Chicago O'Hare International Airport (KORD)

Arrival

Time 2026-05-08 02:38
Airport Washington Dulles International Airport (KIAD)
Time Latitude Longitude Altitude Speed Heading
2026-05-08 01:04 41.97958 -87.91110 673 ft 0 kts 123°
2026-05-08 01:16 41.97961 -87.91118 673 ft 4 kts 131°
2026-05-08 01:16 41.97974 -87.91143 671 ft 4 kts 114°
2026-05-08 01:16 41.97980 -87.91176 672 ft 4 kts 90°
2026-05-08 01:17 41.97976 -87.91211 672 ft 4 kts 67°
2026-05-08 01:17 41.97962 -87.91242 670 ft 4 kts 49°
2026-05-08 01:17 41.97943 -87.91266 671 ft 4 kts 31°
2026-05-08 01:17 41.97937 -87.91270 672 ft 1 kts 27°
2026-05-08 01:19 41.97942 -87.91266 671 ft 3 kts 27°
2026-05-08 01:20 41.98003 -87.91287 673 ft 10 kts 317°
2026-05-08 01:20 41.98063 -87.91285 671 ft 12 kts 29°
2026-05-08 01:20 41.98150 -87.91312 672 ft 20 kts 305°
2026-05-08 01:20 41.98249 -87.91524 672 ft 31 kts 301°
2026-05-08 01:21 41.98290 -87.91751 673 ft 25 kts 270°
2026-05-08 01:21 41.98288 -87.91994 672 ft 27 kts 268°
2026-05-08 01:21 41.98281 -87.92269 672 ft 33 kts 268°
2026-05-08 01:21 41.98280 -87.92610 671 ft 39 kts 270°
2026-05-08 01:22 41.98280 -87.92973 673 ft 36 kts 269°
2026-05-08 01:22 41.98315 -87.93131 674 ft 14 kts 340°
2026-05-08 01:22 41.98449 -87.93142 675 ft 26 kts
2026-05-08 01:22 41.98651 -87.93142 673 ft 31 kts 360°
2026-05-08 01:23 41.98805 -87.93135 673 ft 19 kts 24°
2026-05-08 01:23 41.98830 -87.93036 673 ft 10 kts 90°
2026-05-08 01:23 41.98829 -87.92852 673 ft 47 kts 90°
2026-05-08 01:23 41.98830 -87.92069 674 ft 118 kts 90°
2026-05-08 01:24 41.98830 -87.90697 697 ft 169 kts 92°
2026-05-08 01:24 41.98823 -87.89068 1248 ft 179 kts 91°
2026-05-08 01:24 41.98807 -87.87286 1699 ft 203 kts 94°
2026-05-08 01:24 41.98696 -87.85363 2349 ft 211 kts 97°
2026-05-08 01:25 41.98560 -87.83291 2931 ft 234 kts 95°
2026-05-08 01:25 41.98432 -87.81027 3495 ft 255 kts 94°
2026-05-08 01:25 41.98304 -87.78596 4321 ft 262 kts 94°
2026-05-08 01:25 41.98179 -87.76128 5271 ft 268 kts 93°
2026-05-08 01:26 41.98051 -87.73560 5946 ft 284 kts 93°
2026-05-08 01:26 41.97915 -87.70832 6617 ft 298 kts 93°
2026-05-08 01:26 41.97776 -87.68037 7538 ft 303 kts 93°
2026-05-08 01:26 41.97633 -87.65176 8357 ft 310 kts 92°
2026-05-08 01:27 41.97490 -87.62296 9247 ft 316 kts 92°
2026-05-08 01:27 41.97340 -87.59315 10034 ft 323 kts 92°
2026-05-08 01:27 41.97186 -87.56254 10621 ft 337 kts 92°
2026-05-08 01:27 41.97023 -87.53033 11104 ft 353 kts 92°
2026-05-08 01:28 41.96852 -87.49691 11715 ft 363 kts 92°
2026-05-08 01:28 41.96678 -87.46292 12555 ft 366 kts 92°
2026-05-08 01:28 41.96501 -87.42846 13326 ft 372 kts 92°
2026-05-08 01:28 41.96320 -87.39361 14069 ft 377 kts 92°
2026-05-08 01:29 41.96136 -87.35823 14782 ft 381 kts 92°
2026-05-08 01:29 41.95948 -87.32250 15513 ft 385 kts 92°
2026-05-08 01:29 41.95759 -87.28659 16322 ft 386 kts 92°
2026-05-08 01:29 41.95566 -87.25033 17003 ft 392 kts 92°
2026-05-08 01:30 41.95370 -87.21357 17701 ft 395 kts 92°
2026-05-08 01:30 41.95171 -87.17650 18291 ft 402 kts 92°
2026-05-08 01:30 41.94969 -87.13886 18848 ft 406 kts 92°
2026-05-08 01:30 41.94763 -87.10087 19404 ft 410 kts 92°
2026-05-08 01:31 41.94590 -87.06250 19944 ft 413 kts 86°
2026-05-08 01:31 41.94691 -87.02381 20481 ft 416 kts 84°
2026-05-08 01:31 41.94777 -86.98467 21020 ft 421 kts 85°
2026-05-08 01:31 41.94847 -86.94526 21644 ft 423 kts 85°
2026-05-08 01:32 41.94905 -86.90598 22140 ft 428 kts 85°
2026-05-08 01:32 41.94960 -86.86580 22662 ft 432 kts 85°
2026-05-08 01:32 41.95013 -86.82529 23167 ft 436 kts 85°
2026-05-08 01:32 41.95065 -86.78436 23638 ft 440 kts 85°
2026-05-08 01:33 41.95115 -86.74310 24021 ft 444 kts 85°
2026-05-08 01:33 41.95165 -86.70136 24425 ft 448 kts 85°
2026-05-08 01:33 41.95213 -86.65934 24802 ft 452 kts 85°
2026-05-08 01:33 41.95260 -86.61687 25180 ft 456 kts 85°
2026-05-08 01:34 41.95307 -86.57405 25558 ft 460 kts 85°
2026-05-08 01:34 41.95352 -86.53079 25916 ft 465 kts 85°
2026-05-08 01:34 41.95395 -86.48721 26274 ft 469 kts 85°
2026-05-08 01:34 41.95438 -86.44320 26647 ft 473 kts 85°
2026-05-08 01:35 41.95479 -86.39876 26982 ft 477 kts 85°
2026-05-08 01:35 41.95518 -86.35407 27331 ft 481 kts 85°
2026-05-08 01:35 41.95557 -86.30896 27680 ft 484 kts 85°
2026-05-08 01:35 41.95594 -86.26351 28041 ft 488 kts 85°
2026-05-08 01:36 41.95599 -86.21777 28363 ft 493 kts 90°
2026-05-08 01:36 41.95123 -86.17183 28780 ft 498 kts 98°
2026-05-08 01:36 41.94563 -86.12569 29096 ft 501 kts 97°
2026-05-08 01:36 41.94005 -86.07934 29434 ft 504 kts 98°
2026-05-08 01:37 41.93438 -86.03266 29743 ft 508 kts 98°
2026-05-08 01:37 41.92864 -85.98568 30042 ft 511 kts 98°
2026-05-08 01:37 41.92285 -85.93841 30301 ft 514 kts 98°
2026-05-08 01:37 41.91703 -85.89100 30580 ft 516 kts 98°
2026-05-08 01:38 41.91115 -85.84331 30800 ft 519 kts 98°
2026-05-08 01:38 41.90520 -85.79528 30967 ft 524 kts 98°
2026-05-08 01:38 41.89928 -85.74760 31226 ft 526 kts 98°
2026-05-08 01:38 41.89323 -85.69908 31491 ft 528 kts 98°
2026-05-08 01:39 41.88714 -85.65036 31751 ft 530 kts 98°
2026-05-08 01:39 41.88099 -85.60140 32009 ft 533 kts 98°
2026-05-08 01:39 41.87480 -85.55228 32270 ft 535 kts 98°
2026-05-08 01:39 41.86856 -85.50296 32525 ft 537 kts 98°
2026-05-08 01:40 41.86230 -85.45353 32777 ft 539 kts 98°
2026-05-08 01:40 41.85595 -85.40372 33032 ft 541 kts 99°
2026-05-08 01:40 41.84958 -85.35387 33255 ft 544 kts 99°
2026-05-08 01:40 41.84316 -85.30382 33510 ft 546 kts 99°
2026-05-08 01:41 41.83670 -85.25357 33754 ft 548 kts 99°
2026-05-08 01:41 41.83017 -85.20310 33978 ft 550 kts 99°
2026-05-08 01:41 41.82362 -85.15251 34187 ft 551 kts 99°
2026-05-08 01:41 41.81702 -85.10187 34428 ft 552 kts 99°
2026-05-08 01:42 41.81040 -85.05116 34723 ft 551 kts 99°
2026-05-08 01:42 41.80388 -85.00136 35036 ft 550 kts 99°
2026-05-08 01:42 41.79725 -84.95091 35356 ft 548 kts 99°
2026-05-08 01:42 41.79061 -84.90066 35655 ft 547 kts 99°
2026-05-08 01:43 41.78397 -84.85052 35944 ft 547 kts 100°
2026-05-08 01:43 41.77731 -84.80043 36222 ft 546 kts 100°
2026-05-08 01:43 41.77064 -84.75032 36498 ft 545 kts 100°
2026-05-08 01:43 41.76393 -84.70028 36769 ft 544 kts 100°
2026-05-08 01:44 41.75724 -84.65038 36977 ft 544 kts 100°
2026-05-08 01:44 41.74383 -84.55106 36966 ft 539 kts 100°
2026-05-08 01:45 41.73042 -84.45231 36973 ft 540 kts 100°
2026-05-08 01:45 41.71690 -84.35349 36982 ft 540 kts 100°
2026-05-08 01:46 41.70337 -84.25525 36979 ft 539 kts 101°
2026-05-08 01:46 41.68973 -84.15682 36979 ft 538 kts 101°
2026-05-08 01:47 41.67598 -84.05832 36980 ft 538 kts 101°
2026-05-08 01:47 41.66218 -83.96001 36983 ft 538 kts 101°
2026-05-08 01:48 41.64369 -83.82936 36967 ft 536 kts 101°
2026-05-08 01:48 41.62979 -83.73162 36974 ft 536 kts 101°
2026-05-08 01:49 41.61578 -83.63378 36975 ft 536 kts 101°
2026-05-08 01:49 41.59652 -83.53805 37009 ft 535 kts 108°
2026-05-08 01:50 41.57530 -83.44268 36976 ft 536 kts 109°
2026-05-08 01:50 41.55383 -83.34700 36970 ft 537 kts 109°
2026-05-08 01:51 41.53231 -83.25153 36974 ft 537 kts 109°
2026-05-08 01:51 41.51069 -83.15603 36985 ft 537 kts 109°
2026-05-08 01:52 41.48900 -83.06060 36980 ft 538 kts 109°
2026-05-08 01:52 41.46716 -82.96494 36980 ft 538 kts 109°
2026-05-08 01:53 41.44541 -82.87009 36980 ft 538 kts 109°
2026-05-08 01:53 41.42346 -82.77473 36979 ft 538 kts 110°
2026-05-08 01:54 41.40137 -82.67916 36983 ft 541 kts 110°
2026-05-08 01:54 41.37081 -82.58932 36958 ft 522 kts 136°
2026-05-08 01:55 41.32160 -82.51940 36966 ft 519 kts 141°
2026-05-08 01:55 41.27123 -82.45030 36989 ft 521 kts 142°
2026-05-08 01:56 41.22050 -82.38151 36984 ft 521 kts 142°
2026-05-08 01:56 41.16967 -82.31277 36982 ft 521 kts 142°
2026-05-08 01:57 41.11892 -82.24429 36984 ft 521 kts 142°
2026-05-08 01:57 41.06834 -82.17622 36940 ft 521 kts 143°
2026-05-08 01:58 41.01723 -82.10759 37003 ft 525 kts 143°
2026-05-08 01:58 40.96585 -82.03875 36996 ft 524 kts 143°
2026-05-08 01:59 40.91455 -81.97019 36996 ft 524 kts 143°
2026-05-08 01:59 40.86320 -81.90171 37001 ft 524 kts 143°
2026-05-08 02:00 40.81177 -81.83330 36989 ft 525 kts 143°
2026-05-08 02:00 40.76012 -81.76475 36995 ft 526 kts 143°
2026-05-08 02:01 40.70849 -81.69639 36990 ft 525 kts 143°
2026-05-08 02:01 40.65688 -81.62821 36992 ft 526 kts 143°
2026-05-08 02:02 40.60515 -81.56003 37012 ft 526 kts 143°
2026-05-08 02:02 40.55339 -81.49198 37019 ft 526 kts 143°
2026-05-08 02:03 40.50160 -81.42403 37011 ft 525 kts 144°
2026-05-08 02:03 40.44979 -81.35624 37025 ft 525 kts 144°
2026-05-08 02:04 40.39797 -81.28856 37012 ft 525 kts 144°
2026-05-08 02:04 40.34645 -81.22144 37007 ft 524 kts 144°
2026-05-08 02:05 40.29465 -81.15411 37006 ft 525 kts 144°
2026-05-08 02:05 40.24277 -81.08682 37004 ft 525 kts 144°
2026-05-08 02:06 40.19090 -81.01971 36992 ft 524 kts 144°
2026-05-08 02:06 40.13897 -80.95266 37005 ft 524 kts 144°
2026-05-08 02:07 40.08704 -80.88574 36990 ft 525 kts 144°
2026-05-08 02:07 40.03547 -80.81759 36981 ft 534 kts 135°
2026-05-08 02:08 39.99519 -80.73500 36974 ft 541 kts 130°
2026-05-08 02:08 39.95420 -80.65257 36994 ft 542 kts 129°
2026-05-08 02:09 39.91350 -80.57056 36986 ft 542 kts 129°
2026-05-08 02:09 39.87255 -80.48823 36985 ft 540 kts 130°
2026-05-08 02:10 39.83163 -80.40622 36985 ft 541 kts 130°
2026-05-08 02:10 39.79057 -80.32411 36972 ft 541 kts 130°
2026-05-08 02:11 39.74948 -80.24216 36990 ft 541 kts 130°
2026-05-08 02:11 39.70832 -80.16030 36929 ft 540 kts 130°
2026-05-08 02:12 39.68776 -80.11948 36117 ft 542 kts 131°
2026-05-08 02:12 39.66697 -80.07829 35131 ft 548 kts 131°
2026-05-08 02:12 39.64611 -80.03696 34276 ft 544 kts 131°
2026-05-08 02:12 39.62553 -79.99623 33722 ft 533 kts 131°
2026-05-08 02:13 39.60553 -79.95668 33360 ft 516 kts 131°
2026-05-08 02:13 39.58608 -79.91828 32911 ft 503 kts 132°
2026-05-08 02:13 39.56729 -79.88057 32437 ft 497 kts 127°
2026-05-08 02:13 39.55351 -79.83897 31875 ft 510 kts 109°
2026-05-08 02:14 39.54538 -79.79460 31351 ft 510 kts 107°
2026-05-08 02:14 39.53707 -79.74992 30890 ft 508 kts 107°
2026-05-08 02:14 39.52894 -79.70548 30403 ft 508 kts 107°
2026-05-08 02:14 39.52087 -79.66094 29814 ft 509 kts 107°
2026-05-08 02:15 39.51279 -79.61623 29209 ft 509 kts 107°
2026-05-08 02:15 39.50471 -79.57171 28716 ft 506 kts 107°
2026-05-08 02:15 39.49669 -79.52730 28194 ft 505 kts 107°
2026-05-08 02:15 39.48874 -79.48311 27638 ft 504 kts 107°
2026-05-08 02:16 39.48079 -79.43904 27172 ft 501 kts 107°
2026-05-08 02:16 39.47282 -79.39526 26627 ft 499 kts 107°
2026-05-08 02:16 39.46481 -79.35164 26129 ft 497 kts 107°
2026-05-08 02:16 39.45682 -79.30822 25649 ft 495 kts 107°
2026-05-08 02:17 39.44884 -79.26491 25129 ft 494 kts 107°
2026-05-08 02:17 39.44088 -79.22175 24621 ft 493 kts 107°
2026-05-08 02:17 39.43309 -79.17861 24086 ft 492 kts 106°
2026-05-08 02:17 39.42566 -79.13592 23601 ft 491 kts 107°
2026-05-08 02:18 39.41810 -79.09291 23054 ft 489 kts 107°
2026-05-08 02:18 39.41055 -79.05018 22502 ft 486 kts 107°
2026-05-08 02:18 39.40304 -79.00770 22023 ft 482 kts 107°
2026-05-08 02:18 39.39557 -78.96560 21541 ft 479 kts 107°
2026-05-08 02:19 39.38813 -78.92378 21002 ft 475 kts 107°
2026-05-08 02:19 39.38076 -78.88259 20360 ft 466 kts 107°
2026-05-08 02:19 39.37356 -78.84237 19837 ft 455 kts 107°
2026-05-08 02:19 39.36643 -78.80274 19244 ft 449 kts 107°
2026-05-08 02:20 39.35941 -78.76375 18685 ft 442 kts 107°
2026-05-08 02:20 39.35248 -78.72529 18132 ft 437 kts 107°
2026-05-08 02:20 39.34564 -78.68733 17518 ft 430 kts 106°
2026-05-08 02:20 39.33891 -78.65023 16993 ft 418 kts 107°
2026-05-08 02:21 39.33234 -78.61391 16499 ft 414 kts 106°
2026-05-08 02:21 39.32581 -78.57796 16009 ft 408 kts 105°
2026-05-08 02:21 39.31945 -78.54257 15486 ft 402 kts 105°
2026-05-08 02:21 39.31315 -78.50757 15071 ft 399 kts 105°
2026-05-08 02:22 39.30687 -78.47269 14629 ft 398 kts 104°
2026-05-08 02:22 39.30066 -78.43840 14201 ft 396 kts 104°
2026-05-08 02:22 39.29435 -78.40345 13752 ft 390 kts 104°
2026-05-08 02:22 39.28715 -78.37033 13209 ft 377 kts 116°
2026-05-08 02:23 39.27388 -78.34234 12707 ft 365 kts 127°
2026-05-08 02:23 39.25985 -78.31568 12323 ft 352 kts 126°
2026-05-08 02:23 39.24623 -78.28963 11967 ft 347 kts 126°
2026-05-08 02:23 39.23279 -78.26399 11551 ft 342 kts 126°
2026-05-08 02:24 39.21953 -78.23876 11163 ft 337 kts 126°
2026-05-08 02:24 39.20648 -78.21393 10826 ft 331 kts 126°
2026-05-08 02:24 39.19362 -78.18948 10535 ft 327 kts 126°
2026-05-08 02:24 39.18092 -78.16537 10280 ft 323 kts 125°
2026-05-08 02:25 39.16834 -78.14150 9991 ft 320 kts 125°
2026-05-08 02:25 39.15592 -78.11794 9788 ft 314 kts 125°
2026-05-08 02:25 39.14377 -78.09490 9629 ft 306 kts 125°
2026-05-08 02:25 39.13191 -78.07246 9486 ft 303 kts 125°
2026-05-08 02:26 39.12007 -78.05003 9333 ft 303 kts 125°
2026-05-08 02:26 39.10841 -78.02796 9194 ft 301 kts 125°
2026-05-08 02:26 39.09664 -78.00573 9006 ft 300 kts 125°
2026-05-08 02:26 39.08482 -77.98343 8661 ft 302 kts 125°
2026-05-08 02:27 39.07281 -77.96081 8296 ft 302 kts 125°
2026-05-08 02:27 39.06115 -77.93885 7974 ft 300 kts 125°
2026-05-08 02:27 39.04939 -77.91671 7662 ft 298 kts 125°
2026-05-08 02:27 39.03776 -77.89481 7341 ft 296 kts 125°
2026-05-08 02:28 39.02619 -77.87306 7077 ft 292 kts 125°
2026-05-08 02:28 39.01486 -77.85176 6873 ft 286 kts 125°
2026-05-08 02:28 39.00367 -77.83072 6646 ft 282 kts 124°
2026-05-08 02:28 38.99271 -77.81012 6457 ft 278 kts 124°
2026-05-08 02:29 38.98176 -77.78955 6271 ft 279 kts 124°
2026-05-08 02:29 38.97099 -77.76909 6090 ft 274 kts 121°
2026-05-08 02:29 38.96490 -77.74652 5941 ft 263 kts 96°
2026-05-08 02:29 38.96235 -77.72359 5894 ft 259 kts 97°
2026-05-08 02:30 38.95976 -77.70061 5895 ft 261 kts 96°
2026-05-08 02:30 38.95722 -77.67747 5823 ft 261 kts 96°
2026-05-08 02:30 38.95483 -77.65433 5721 ft 261 kts 92°
2026-05-08 02:30 38.95759 -77.63187 5604 ft 253 kts 62°
2026-05-08 02:31 38.96773 -77.61451 5545 ft 244 kts 36°
2026-05-08 02:31 38.98157 -77.60177 5534 ft 241 kts 29°
2026-05-08 02:31 38.99537 -77.59004 5478 ft 234 kts 28°
2026-05-08 02:31 39.00900 -77.57956 5390 ft 227 kts 17°
2026-05-08 02:32 39.02367 -77.57643 5344 ft 211 kts 358°
2026-05-08 02:32 39.03825 -77.57578 5298 ft 209 kts 357°
2026-05-08 02:32 39.05277 -77.57529 5241 ft 209 kts 358°
2026-05-08 02:32 39.06636 -77.56936 5002 ft 210 kts 32°
2026-05-08 02:33 39.07577 -77.55535 4709 ft 208 kts 56°
2026-05-08 02:33 39.08009 -77.53762 4374 ft 208 kts 82°
2026-05-08 02:33 39.07813 -77.51915 3990 ft 212 kts 105°
2026-05-08 02:33 39.07339 -77.50113 3592 ft 213 kts 106°
2026-05-08 02:34 39.06883 -77.48313 3205 ft 210 kts 105°
2026-05-08 02:34 39.06451 -77.46542 2827 ft 203 kts 105°
2026-05-08 02:34 39.06172 -77.45437 2617 ft 191 kts 111°
2026-05-08 02:34 39.05005 -77.43959 2228 ft 172 kts 161°
2026-05-08 02:35 39.04268 -77.43635 2069 ft 168 kts 170°
2026-05-08 02:35 39.03146 -77.43434 1833 ft 158 kts 184°
2026-05-08 02:35 39.02063 -77.43476 1625 ft 154 kts 189°
2026-05-08 02:35 39.00999 -77.43515 1420 ft 152 kts 186°
2026-05-08 02:36 38.99950 -77.43528 1203 ft 149 kts 184°
2026-05-08 02:36 38.98923 -77.43541 1011 ft 145 kts 184°
2026-05-08 02:36 38.97936 -77.43561 799 ft 139 kts 183°
2026-05-08 02:36 38.97008 -77.43587 635 ft 134 kts 182°
2026-05-08 02:37 38.96076 -77.43588 431 ft 132 kts 181°
2026-05-08 02:37 38.95178 -77.43607 305 ft 122 kts 181°
2026-05-08 02:37 38.94527 -77.43613 304 ft 61 kts 181°
2026-05-08 02:37 38.94128 -77.43621 304 ft 55 kts 184°
2026-05-08 02:38 38.93907 -77.43700 304 ft 19 kts 206°
2026-05-08 02:38 38.93798 -77.43797 303 ft 18 kts 212°
2026-05-08 02:38 38.93742 -77.43923 303 ft 18 kts 280°
2026-05-08 02:38 38.93849 -77.43984 305 ft 19 kts
2026-05-08 02:39 38.94000 -77.43982 304 ft 26 kts
2026-05-08 02:39 38.94212 -77.43980 303 ft 33 kts
2026-05-08 02:39 38.94395 -77.44013 304 ft 22 kts 300°
2026-05-08 02:39 38.94423 -77.44158 304 ft 9 kts 326°
2026-05-08 02:40 38.94477 -77.44150 303 ft 6 kts 19°